Project,Study,Ord_Occ,Event_Num,Date_Time_UTC,Date_Time_PST,Lat_Dec,Lon_Dec,Sta_ID,Line,Sta,Depth,Pressure,Temp0,Temp1,Salt0,CorrSalt0,Salt1,CorrSalt1,O2ml/L,AveCorrO2ml/L,StaCorrO2ml/L,FluorV,AveEstChl,StaEstChl,ISUSV,AveEstNO3,StaEstNO3,SigThetaTS0,SigThetaTS1,BAT,XMiss,SPAR,PAR,BTL_Depth,BTL_Temp,BTL_Salt,BTL_O2ml/L,BTL_Chl,BTL_Pha,BTL_NO3
CalCOFI,0701JD,021,197,18-Jan-2007 5:50:59 PM,18-Jan-2007 9:50:59 AM,33.41816,-117.89950,090.0 030.0,090.0,030.0,516.000,520.336,6.6486,6.6493,34.3103,34.3090,34.3081,34.3082,0.34399,0.39,0.42,0.0250,,,1.5648,35.44,37.534,26.9296,26.9277,0.3927,90.6249,3.9390e+00,9.9990e+03,,,,,,,
CalCOFI,0701JD,021,197,18-Jan-2007 5:51:15 PM,18-Jan-2007 9:51:15 AM,33.41816,-117.89950,090.0 030.0,090.0,030.0,515.000,519.326,6.6476,6.6484,34.3103,34.3090,34.3081,34.3082,0.34324,0.38,0.42,0.0250,,,1.5620,35.36,37.449,26.9297,26.9279,-9.990e-29,90.6245,4.5317e+00,9.9990e+03,515,6.66 ,34.308,  .36,,,38.1
CalCOFI,0701JD,021,197,18-Jan-2007 5:51:16 PM,18-Jan-2007 9:51:16 AM,33.41816,-117.89950,090.0 030.0,090.0,030.0,514.000,518.316,6.6506,6.6518,34.3101,34.3088,34.3079,34.3080,0.34458,0.39,0.42,0.0251,,,1.5667,35.50,37.592,26.9291,26.9272,-9.990e-29,90.6245,3.9728e+00,9.9990e+03,,,,,,,
CalCOFI,0701JD,021,197,18-Jan-2007 5:51:17 PM,18-Jan-2007 9:51:17 AM,33.41816,-117.89950,090.0 030.0,090.0,030.0,513.000,517.307,6.6589,6.6600,34.3104,34.3091,34.3080,34.3081,0.34563,0.39,0.43,0.0253,,,1.5717,35.64,37.744,26.9283,26.9262,0.3938,90.6245,3.7509e+00,9.9990e+03,,,,,,,
CalCOFI,0701JD,021,197,18-Jan-2007 5:51:18 PM,18-Jan-2007 9:51:18 AM,33.41816,-117.89950,090.0 030.0,090.0,030.0,512.000,516.297,6.6765,6.6784,34.3099,34.3086,34.3072,34.3073,0.34693,0.39,0.43,0.0250,,,1.5764,35.78,37.887,26.9255,26.9231,0.3933,90.6365,4.0484e+00,9.9990e+03,,,,,,,
CalCOFI,0701JD,021,197,18-Jan-2007 5:51:19 PM,18-Jan-2007 9:51:19 AM,33.41816,-117.89950,090.0 030.0,090.0,030.0,511.000,515.287,6.6856,6.6857,34.3095,34.3082,34.3072,34.3073,0.34747,0.39,0.43,0.0251,,,1.5858,36.06,38.172,26.9240,26.9222,0.3929,90.6438,4.5859e+00,9.9990e+03,,,,,,,
CalCOFI,0701JD,021,197,18-Jan-2007 5:51:20 PM,18-Jan-2007 9:51:20 AM,33.41816,-117.89950,090.0 030.0,090.0,030.0,510.000,514.278,6.6954,6.6963,34.3100,34.3087,34.3076,34.3077,0.34813,0.39,0.43,0.0252,,,1.5900,36.18,38.299,26.9230,26.9210,0.3933,90.6364,3.9527e+00,9.9990e+03,,,,,,,
CalCOFI,0701JD,021,197,18-Jan-2007 5:51:21 PM,18-Jan-2007 9:51:21 AM,33.41816,-117.89950,090.0 030.0,090.0,030.0,509.000,513.268,6.7080,6.7088,34.3107,34.3094,34.3084,34.3085,0.34848,0.39,0.43,0.0249,,,1.5899,36.18,38.296,26.9219,26.9200,0.3928,90.6479,4.0048e+00,9.9990e+03,,,,,,,
CalCOFI,0701JD,021,197,18-Jan-2007 5:51:22 PM,18-Jan-2007 9:51:22 AM,33.41816,-117.89950,090.0 030.0,090.0,030.0,508.000,512.258,6.7189,6.7193,34.3109,34.3096,34.3086,34.3087,0.34923,0.39,0.43,0.0252,,,1.5725,35.67,37.768,26.9206,26.9188,0.3934,90.6328,4.1472e+00,9.9990e+03,,,,,,,
CalCOFI,0701JD,021,197,18-Jan-2007 5:51:23 PM,18-Jan-2007 9:51:23 AM,33.41816,-117.89950,090.0 030.0,090.0,030.0,507.000,511.249,6.7278,6.7276,34.3106,34.3093,34.3085,34.3086,0.34966,0.39,0.43,0.0249,,,1.5769,35.80,37.902,26.9191,26.9176,0.3926,90.6516,4.1218e+00,9.9990e+03,,,,,,,
CalCOFI,0701JD,021,197,18-Jan-2007 5:51:24 PM,18-Jan-2007 9:51:24 AM,33.41816,-117.89950,090.0 030.0,090.0,030.0,506.000,510.239,6.7300,6.7306,34.3106,34.3093,34.3085,34.3086,0.35030,0.39,0.43,0.0249,,,1.5971,36.39,38.515,26.9189,26.9171,0.3925,90.6527,4.2388e+00,9.9990e+03,,,,,,,
CalCOFI,0701JD,021,197,18-Jan-2007 5:51:25 PM,18-Jan-2007 9:51:25 AM,33.41816,-117.89950,090.0 030.0,090.0,030.0,505.000,509.230,6.7354,6.7369,34.3104,34.3091,34.3083,34.3084,0.35219,0.40,0.43,0.0256,,,1.5913,36.22,38.339,26.9180,26.9161,0.3923,90.6590,4.2572e+00,9.9990e+03,,,,,,,
CalCOFI,0701JD,021,197,18-Jan-2007 5:51:26 PM,18-Jan-2007 9:51:26 AM,33.41816,-117.89950,090.0 030.0,090.0,030.0,504.000,508.220,6.7447,6.7457,34.3100,34.3087,34.3078,34.3079,0.35258,0.40,0.43,0.0249,,,1.5803,35.90,38.005,26.9164,26.9145,0.3924,90.6554,4.7055e+00,9.9990e+03,,,,,,,
CalCOFI,0701JD,021,197,18-Jan-2007 5:51:27 PM,18-Jan-2007 9:51:27 AM,33.41816,-117.89950,090.0 030.0,090.0,030.0,503.000,507.210,6.7491,6.7495,34.3097,34.3084,34.3079,34.3080,0.35311,0.40,0.43,0.0249,,,1.6047,36.61,38.746,26.9155,26.9140,0.3929,90.6442,4.2176e+00,9.9990e+03,,,,,,,
CalCOFI,0701JD,021,197,18-Jan-2007 5:51:28 PM,18-Jan-2007 9:51:28 AM,33.41816,-117.89944,090.0 030.0,090.0,030.0,502.000,506.201,6.7524,6.7526,34.3098,34.3085,34.3078,34.3079,0.35457,0.40,0.44,0.0253,,,1.5665,35.49,37.586,26.9152,26.9136,0.3925,90.6531,4.3211e+00,9.9990e+03,,,,,,,
CalCOFI,0701JD,021,197,18-Jan-2007 5:51:29 PM,18-Jan-2007 9:51:29 AM,33.41816,-117.89934,090.0 030.0,090.0,030.0,501.000,505.191,6.7613,6.7615,34.3094,34.3081,34.3075,34.3076,0.35504,0.40,0.44,0.0254,,,1.5713,35.63,37.732,26.9137,26.9121,0.3925,90.6530,4.1284e+00,9.9990e+03,,,,,,,
CalCOFI,0701JD,021,197,18-Jan-2007 5:51:30 PM,18-Jan-2007 9:51:30 AM,33.41816,-117.89934,090.0 030.0,090.0,030.0,500.000,504.182,6.7654,6.7661,34.3092,34.3079,34.3073,34.3074,0.35509,0.40,0.44,0.0251,,,1.5781,35.83,37.938,26.9129,26.9113,0.3925,90.6545,4.1428e+00,9.9990e+03,,,,,,,
CalCOFI,0701JD,021,197,18-Jan-2007 5:51:30 PM,18-Jan-2007 9:51:30 AM,33.41816,-117.89934,090.0 030.0,090.0,030.0,499.000,503.172,6.7693,6.7699,34.3091,34.3078,34.3071,34.3072,0.35797,0.40,0.44,0.0251,,,1.5745,35.73,37.829,26.9123,26.9106,0.3925,90.6538,4.2754e+00,9.9990e+03,,,,,,,
CalCOFI,0701JD,021,197,18-Jan-2007 5:51:31 PM,18-Jan-2007 9:51:31 AM,33.41816,-117.89934,090.0 030.0,090.0,030.0,498.000,502.163,6.7749,6.7755,34.3088,34.3075,34.3068,34.3069,0.35878,0.40,0.44,0.0251,,,1.5695,35.58,37.677,26.9113,26.9096,0.3920,90.6654,3.8432e+00,9.9990e+03,,,,,,,
CalCOFI,0701JD,021,197,18-Jan-2007 5:51:33 PM,18-Jan-2007 9:51:33 AM,33.41816,-117.89934,090.0 030.0,090.0,030.0,497.000,501.153,6.7864,6.7872,34.3083,34.3070,34.3061,34.3062,0.36133,0.41,0.44,0.0252,,,1.5574,35.23,37.310,26.9094,26.9076,0.3922,90.6612,3.7072e+00,9.9990e+03,,,,,,,
CalCOFI,0701JD,021,197,18-Jan-2007 5:51:34 PM,18-Jan-2007 9:51:34 AM,33.41816,-117.89934,090.0 030.0,090.0,030.0,496.000,500.143,6.7933,6.7937,34.3080,34.3067,34.3062,34.3063,0.36234,0.41,0.45,0.0253,,,1.5777,35.82,37.926,26.9082,26.9067,0.3920,90.6639,4.0510e+00,9.9990e+03,,,,,,,
CalCOFI,0701JD,021,197,18-Jan-2007 5:51:35 PM,18-Jan-2007 9:51:35 AM,33.41816,-117.89934,090.0 030.0,090.0,030.0,495.000,499.134,6.8030,6.8041,34.3078,34.3065,34.3057,34.3058,0.36368,0.41,0.45,0.0249,,,1.5788,35.85,37.959,26.9067,26.9049,0.3921,90.6635,4.3613e+00,9.9990e+03,,,,,,,
CalCOFI,0701JD,021,197,18-Jan-2007 5:51:36 PM,18-Jan-2007 9:51:36 AM,33.41816,-117.89934,090.0 030.0,090.0,030.0,494.000,498.124,6.8101,6.8109,34.3073,34.3060,34.3055,34.3056,0.36591,0.41,0.45,0.0255,,,1.5752,35.75,37.850,26.9053,26.9038,0.3919,90.6678,4.3197e+00,9.9990e+03,,,,,,,
CalCOFI,0701JD,021,197,18-Jan-2007 5:51:37 PM,18-Jan-2007 9:51:37 AM,33.41816,-117.89934,090.0 030.0,090.0,030.0,493.000,497.115,6.8175,6.8183,34.3071,34.3058,34.3051,34.3052,0.36695,0.41,0.45,0.0248,,,1.6092,36.75,38.882,26.9041,26.9025,0.3920,90.6661,4.1877e+00,9.9990e+03,,,,,,,
CalCOFI,0701JD,021,197,18-Jan-2007 5:51:38 PM,18-Jan-2007 9:51:38 AM,33.41816,-117.89934,090.0 030.0,090.0,030.0,492.000,496.105,6.8223,6.8228,34.3067,34.3054,34.3050,34.3051,0.36801,0.41,0.45,0.0255,,,1.5592,35.28,37.364,26.9032,26.9018,0.3923,90.6587,3.9302e+00,9.9990e+03,,,,,,,
CalCOFI,0701JD,021,197,18-Jan-2007 5:51:39 PM,18-Jan-2007 9:51:39 AM,33.41816,-117.89934,090.0 030.0,090.0,030.0,491.000,495.096,6.8248,6.8252,34.3066,34.3053,34.3050,34.3051,0.36879,0.42,0.45,0.0252,,,1.5298,34.41,36.472,26.9028,26.9015,0.3929,90.6447,4.3853e+00,9.9990e+03,,,,,,,
CalCOFI,0701JD,021,197,18-Jan-2007 5:51:40 PM,18-Jan-2007 9:51:40 AM,33.41816,-117.89934,090.0 030.0,090.0,030.0,490.000,494.086,6.8268,6.8274,34.3064,34.3051,34.3048,34.3049,0.37049,0.42,0.46,0.0254,,,1.5392,34.69,36.757,26.9023,26.9009,0.3925,90.6527,4.6575e+00,9.9990e+03,,,,,,,
CalCOFI,0701JD,021,197,18-Jan-2007 5:51:40 PM,18-Jan-2007 9:51:40 AM,33.41816,-117.89934,090.0 030.0,090.0,030.0,489.000,493.077,6.8294,6.8300,34.3064,34.3051,34.3046,34.3047,0.37076,0.42,0.46,0.0253,,,1.5738,35.71,37.808,26.9020,26.9005,0.3920,90.6656,4.3910e+00,9.9990e+03,,,,,,,
CalCOFI,0701JD,021,197,18-Jan-2007 5:51:41 PM,18-Jan-2007 9:51:41 AM,33.41816,-117.89934,090.0 030.0,090.0,030.0,488.000,492.067,6.8345,6.8351,34.3062,34.3049,34.3045,34.3046,0.37277,0.42,0.46,0.0247,,,1.5292,34.40,36.454,26.9011,26.8997,0.3929,90.6450,4.1909e+00,9.9990e+03,,,,,,,
CalCOFI,0701JD,021,197,18-Jan-2007 5:51:42 PM,18-Jan-2007 9:51:42 AM,33.41816,-117.89934,090.0 030.0,090.0,030.0,487.000,491.057,6.8395,6.8401,34.3056,34.3043,34.3039,34.3040,0.37474,0.42,0.46,0.0247,,,1.5126,33.91,35.950,26.9000,26.8985,0.3927,90.6501,4.2804e+00,9.9990e+03,,,,,,,
CalCOFI,0701JD,021,197,18-Jan-2007 5:51:44 PM,18-Jan-2007 9:51:44 AM,33.41816,-117.89934,090.0 030.0,090.0,030.0,486.000,490.048,6.8492,6.8511,34.3047,34.3034,34.3028,34.3029,0.37619,0.42,0.46,0.0254,,,1.5629,35.39,37.477,26.8979,26.8961,0.3930,90.6434,3.9480e+00,9.9990e+03,,,,,,,
CalCOFI,0701JD,021,197,18-Jan-2007 5:51:45 PM,18-Jan-2007 9:51:45 AM,33.41816,-117.89934,090.0 030.0,090.0,030.0,485.000,489.038,6.8535,6.8553,34.3042,34.3029,34.3024,34.3025,0.37857,0.43,0.47,0.0254,,,1.5402,34.72,36.788,26.8969,26.8952,0.3934,90.6336,4.1779e+00,9.9990e+03,,,,,,,
CalCOFI,0701JD,021,197,18-Jan-2007 5:51:46 PM,18-Jan-2007 9:51:46 AM,33.41816,-117.89934,090.0 030.0,090.0,030.0,484.000,488.029,6.8576,6.8584,34.3037,34.3024,34.3020,34.3021,0.38203,0.43,0.47,0.0249,,,1.5603,35.31,37.398,26.8959,26.8946,0.3934,90.6342,4.0886e+00,9.9990e+03,,,,,,,
CalCOFI,0701JD,021,197,18-Jan-2007 5:51:47 PM,18-Jan-2007 9:51:47 AM,33.41816,-117.89934,090.0 030.0,090.0,030.0,483.000,487.019,6.8641,6.8648,34.3031,34.3018,34.3014,34.3015,0.38460,0.43,0.47,0.0253,,,1.5599,35.30,37.386,26.8946,26.8931,0.3943,90.6134,4.4822e+00,9.9990e+03,,,,,,,
CalCOFI,0701JD,021,197,18-Jan-2007 5:51:48 PM,18-Jan-2007 9:51:48 AM,33.41816,-117.89934,090.0 030.0,090.0,030.0,482.000,486.010,6.8760,6.8770,34.3020,34.3007,34.2998,34.2999,0.38638,0.44,0.48,0.0250,,,1.5721,35.66,37.756,26.8921,26.8902,0.3948,90.6011,4.1745e+00,9.9990e+03,,,,,,,
CalCOFI,0701JD,021,197,18-Jan-2007 5:51:48 PM,18-Jan-2007 9:51:48 AM,33.41816,-117.89934,090.0 030.0,090.0,030.0,481.000,485.000,6.8855,6.8862,34.3008,34.2995,34.2991,34.2992,0.38782,0.44,0.48,0.0247,,,1.5918,36.23,38.354,26.8899,26.8884,0.3950,90.5984,4.1598e+00,9.9990e+03,,,,,,,
CalCOFI,0701JD,021,197,18-Jan-2007 5:51:49 PM,18-Jan-2007 9:51:49 AM,33.41816,-117.89934,090.0 030.0,090.0,030.0,480.000,483.991,6.8882,6.8888,34.3008,34.2995,34.2992,34.2993,0.38917,0.44,0.48,0.0252,,,1.5351,34.57,36.633,26.8895,26.8881,0.3960,90.5745,4.5967e+00,9.9990e+03,,,,,,,
CalCOFI,0701JD,021,197,18-Jan-2007 5:51:50 PM,18-Jan-2007 9:51:50 AM,33.41816,-117.89934,090.0 030.0,090.0,030.0,479.000,482.981,6.8900,6.8905,34.3008,34.2995,34.2992,34.2993,0.39171,0.44,0.48,0.0248,,,1.5453,34.87,36.942,26.8892,26.8879,0.3956,90.5844,4.4341e+00,9.9990e+03,,,,,,,
CalCOFI,0701JD,021,197,18-Jan-2007 5:51:51 PM,18-Jan-2007 9:51:51 AM,33.41816,-117.89934,090.0 030.0,090.0,030.0,478.000,481.972,6.8948,6.8953,34.3004,34.2991,34.2988,34.2989,0.39436,0.45,0.49,0.0253,,,1.5714,35.64,37.735,26.8882,26.8869,0.3950,90.5974,4.5443e+00,9.9990e+03,,,,,,,
CalCOFI,0701JD,021,197,18-Jan-2007 5:51:53 PM,18-Jan-2007 9:51:53 AM,33.41816,-117.89934,090.0 030.0,090.0,030.0,477.000,480.962,6.8975,6.8980,34.3001,34.2988,34.2985,34.2986,0.39774,0.45,0.49,0.0255,,,1.5780,35.83,37.935,26.8876,26.8863,0.3962,90.5694,4.0376e+00,9.9990e+03,,,,,,,
CalCOFI,0701JD,021,197,18-Jan-2007 5:51:54 PM,18-Jan-2007 9:51:54 AM,33.41816,-117.89934,090.0 030.0,090.0,030.0,476.000,479.953,6.9012,6.9023,34.2997,34.2984,34.2979,34.2980,0.40127,0.46,0.49,0.0250,,,1.5616,35.35,37.437,26.8868,26.8852,0.3944,90.6112,4.5046e+00,9.9990e+03,,,,,,,
CalCOFI,0701JD,021,197,18-Jan-2007 5:51:55 PM,18-Jan-2007 9:51:55 AM,33.41816,-117.89934,090.0 030.0,090.0,030.0,475.000,478.943,6.9102,6.9105,34.2989,34.2976,34.2972,34.2973,0.40374,0.46,0.50,0.0246,,,1.5599,35.30,37.386,26.8849,26.8836,0.3935,90.6306,4.5594e+00,9.9990e+03,,,,,,,
CalCOFI,0701JD,021,197,18-Jan-2007 5:51:56 PM,18-Jan-2007 9:51:56 AM,33.41816,-117.89934,090.0 030.0,090.0,030.0,474.000,477.934,6.9169,6.9178,34.2985,34.2972,34.2969,34.2970,0.40602,0.46,0.50,0.0250,,,1.5488,34.97,37.049,26.8837,26.8823,0.3938,90.6245,4.4307e+00,9.9990e+03,,,,,,,
CalCOFI,0701JD,021,197,18-Jan-2007 5:51:57 PM,18-Jan-2007 9:51:57 AM,33.41816,-117.89934,090.0 030.0,090.0,030.0,473.000,476.925,6.9196,6.9200,34.2981,34.2968,34.2967,34.2968,0.40838,0.46,0.50,0.0249,,,1.5471,34.92,36.997,26.8830,26.8819,0.3936,90.6284,4.3778e+00,9.9990e+03,,,,,,,
CalCOFI,0701JD,021,197,18-Jan-2007 5:51:58 PM,18-Jan-2007 9:51:58 AM,33.41816,-117.89934,090.0 030.0,090.0,030.0,472.000,475.915,6.9196,6.9200,34.2980,34.2967,34.2966,34.2967,0.41052,0.47,0.50,0.0250,,,1.5365,34.61,36.675,26.8830,26.8818,0.3937,90.6277,4.5894e+00,9.9990e+03,,,,,,,
CalCOFI,0701JD,021,197,18-Jan-2007 5:51:59 PM,18-Jan-2007 9:51:59 AM,33.41816,-117.89934,090.0 030.0,090.0,030.0,471.000,474.906,6.9249,6.9252,34.2981,34.2968,34.2964,34.2965,0.41342,0.47,0.51,0.0249,,,1.5161,34.01,36.056,26.8822,26.8809,0.3937,90.6256,3.8429e+00,9.9990e+03,,,,,,,
CalCOFI,0701JD,021,197,18-Jan-2007 5:52:00 PM,18-Jan-2007 9:52:00 AM,33.41816,-117.89934,090.0 030.0,090.0,030.0,470.000,473.896,6.9413,6.9420,34.2983,34.2970,34.2961,34.2962,0.41586,0.47,0.51,0.0247,,,1.5164,34.02,36.065,26.8802,26.8784,0.3941,90.6186,4.3004e+00,9.9990e+03,,,,,,,
CalCOFI,0701JD,021,197,18-Jan-2007 5:52:01 PM,18-Jan-2007 9:52:01 AM,33.41816,-117.89934,090.0 030.0,090.0,030.0,469.000,472.887,6.9576,6.9582,34.2974,34.2961,34.2957,34.2958,0.41738,0.47,0.51,0.0252,,,1.5727,35.67,37.774,26.8772,26.8758,0.3955,90.5859,4.2571e+00,9.9990e+03,,,,,,,
CalCOFI,0701JD,021,197,18-Jan-2007 5:52:01 PM,18-Jan-2007 9:52:01 AM,33.41816,-117.89934,090.0 030.0,090.0,030.0,468.000,471.877,6.9668,6.9678,34.2973,34.2960,34.2954,34.2955,0.42000,0.48,0.52,0.0251,,,1.5531,35.10,37.179,26.8759,26.8743,0.3955,90.5874,4.4491e+00,9.9990e+03,,,,,,,
CalCOFI,0701JD,021,197,18-Jan-2007 5:52:02 PM,18-Jan-2007 9:52:02 AM,33.41816,-117.89934,090.0 030.0,090.0,030.0,467.000,470.868,6.9726,6.9734,34.2971,34.2958,34.2955,34.2956,0.42198,0.48,0.52,0.0247,,,1.5584,35.25,37.340,26.8749,26.8735,0.3957,90.5818,3.8307e+00,9.9990e+03,,,,,,,
CalCOFI,0701JD,021,197,18-Jan-2007 5:52:03 PM,18-Jan-2007 9:52:03 AM,33.41816,-117.89934,090.0 030.0,090.0,030.0,466.000,469.858,6.9818,6.9825,34.2968,34.2955,34.2952,34.2953,0.42404,0.48,0.52,0.0250,,,1.5506,35.03,37.103,26.8734,26.8721,0.3966,90.5620,4.2605e+00,9.9990e+03,,,,,,,
CalCOFI,0701JD,021,197,18-Jan-2007 5:52:04 PM,18-Jan-2007 9:52:04 AM,33.41816,-117.89921,090.0 030.0,090.0,030.0,465.000,468.849,6.9863,6.9870,34.2965,34.2952,34.2950,34.2951,0.42590,0.49,0.52,0.0252,,,1.5349,34.56,36.627,26.8726,26.8713,0.3959,90.5776,4.2662e+00,9.9990e+03,,,,,,,
CalCOFI,0701JD,021,197,18-Jan-2007 5:52:06 PM,18-Jan-2007 9:52:06 AM,33.41816,-117.89918,090.0 030.0,090.0,030.0,464.000,467.840,6.9913,6.9920,34.2964,34.2951,34.2950,34.2951,0.42868,0.49,0.53,0.0251,,,1.5291,34.39,36.451,26.8718,26.8705,0.3953,90.5918,3.9784e+00,9.9990e+03,,,,,,,
CalCOFI,0701JD,021,197,18-Jan-2007 5:52:07 PM,18-Jan-2007 9:52:07 AM,33.41816,-117.89918,090.0 030.0,090.0,030.0,463.000,466.830,6.9992,7.0007,34.2963,34.2950,34.2946,34.2947,0.43147,0.49,0.53,0.0250,,,1.5047,33.68,35.710,26.8706,26.8690,0.3958,90.5804,4.3890e+00,9.9990e+03,,,,,,,
CalCOFI,0701JD,021,197,18-Jan-2007 5:52:08 PM,18-Jan-2007 9:52:08 AM,33.41816,-117.89918,090.0 030.0,090.0,030.0,462.000,465.821,7.0125,7.0141,34.2955,34.2942,34.2940,34.2941,0.43494,0.50,0.53,0.0252,,,1.5172,34.04,36.089,26.8682,26.8668,0.3954,90.5889,4.6075e+00,9.9990e+03,,,,,,,
CalCOFI,0701JD,021,197,18-Jan-2007 5:52:09 PM,18-Jan-2007 9:52:09 AM,33.41816,-117.89918,090.0 030.0,090.0,030.0,461.000,464.811,7.0245,7.0255,34.2955,34.2942,34.2936,34.2937,0.43996,0.50,0.54,0.0251,,,1.5579,35.24,37.325,26.8665,26.8648,0.3952,90.5934,3.9119e+00,9.9990e+03,,,,,,,
CalCOFI,0701JD,021,197,18-Jan-2007 5:52:10 PM,18-Jan-2007 9:52:10 AM,33.41816,-117.89918,090.0 030.0,090.0,030.0,460.000,463.802,7.0467,7.0476,34.2947,34.2934,34.2928,34.2929,0.44327,0.51,0.54,0.0251,,,1.5308,34.44,36.502,26.8628,26.8611,0.3957,90.5820,4.3011e+00,9.9990e+03,,,,,,,
CalCOFI,0701JD,021,197,18-Jan-2007 5:52:11 PM,18-Jan-2007 9:52:11 AM,33.41816,-117.89918,090.0 030.0,090.0,030.0,459.000,462.793,7.0767,7.0784,34.2942,34.2929,34.2919,34.2920,0.44702,0.51,0.55,0.0250,,,1.5776,35.82,37.923,26.8583,26.8562,0.3957,90.5810,4.2054e+00,9.9990e+03,,,,,,,
CalCOFI,0701JD,021,197,18-Jan-2007 5:52:11 PM,18-Jan-2007 9:52:11 AM,33.41816,-117.89918,090.0 030.0,090.0,030.0,458.000,461.783,7.0891,7.0901,34.2930,34.2917,34.2917,34.2918,0.45100,0.52,0.55,0.0249,,,1.5787,35.85,37.956,26.8556,26.8544,0.3952,90.5934,4.4756e+00,9.9990e+03,,,,,,,
CalCOFI,0701JD,021,197,18-Jan-2007 5:52:13 PM,18-Jan-2007 9:52:13 AM,33.41816,-117.89918,090.0 030.0,090.0,030.0,457.000,460.774,7.0951,7.0960,34.2930,34.2917,34.2914,34.2915,0.45554,0.52,0.56,0.0250,,,1.5252,34.28,36.332,26.8547,26.8533,0.3958,90.5789,4.1132e+00,9.9990e+03,,,,,,,
CalCOFI,0701JD,021,197,18-Jan-2007 5:52:14 PM,18-Jan-2007 9:52:14 AM,33.41816,-117.89918,090.0 030.0,090.0,030.0,456.000,459.765,7.1101,7.1115,34.2922,34.2909,34.2908,34.2909,0.45954,0.53,0.56,0.0253,,,1.5253,34.28,36.335,26.8520,26.8507,0.3947,90.6037,4.1045e+00,9.9990e+03,,,,,,,
CalCOFI,0701JD,021,197,18-Jan-2007 5:52:15 PM,18-Jan-2007 9:52:15 AM,33.41816,-117.89918,090.0 030.0,090.0,030.0,455.000,458.755,7.1147,7.1153,34.2918,34.2905,34.2906,34.2907,0.46392,0.53,0.57,0.0256,,,1.5292,34.40,36.454,26.8511,26.8501,0.3945,90.6098,4.2258e+00,9.9990e+03,,,,,,,
CalCOFI,0701JD,021,197,18-Jan-2007 5:52:16 PM,18-Jan-2007 9:52:16 AM,33.41816,-117.89918,090.0 030.0,090.0,030.0,454.000,457.746,7.1258,7.1266,34.2921,34.2908,34.2901,34.2902,0.46806,0.54,0.58,0.0252,,,1.5396,34.70,36.769,26.8497,26.8481,0.3937,90.6257,4.4797e+00,9.9990e+03,,,,,,,
CalCOFI,0701JD,021,197,18-Jan-2007 5:52:17 PM,18-Jan-2007 9:52:17 AM,33.41816,-117.89918,090.0 030.0,090.0,030.0,453.000,456.736,7.1514,7.1528,34.2912,34.2899,34.2892,34.2893,0.47279,0.54,0.58,0.0250,,,1.5286,34.38,36.435,26.8455,26.8437,0.3944,90.6114,3.5318e+00,9.9990e+03,,,,,,,
CalCOFI,0701JD,021,197,18-Jan-2007 5:52:18 PM,18-Jan-2007 9:52:18 AM,33.41816,-117.89918,090.0 030.0,090.0,030.0,452.000,455.727,7.1668,7.1681,34.2901,34.2888,34.2887,34.2888,0.47691,0.55,0.59,0.0244,,,1.5073,33.75,35.789,26.8425,26.8412,0.3942,90.6151,4.5651e+00,9.9990e+03,,,,,,,
CalCOFI,0701JD,021,197,18-Jan-2007 5:52:18 PM,18-Jan-2007 9:52:18 AM,33.41816,-117.89918,090.0 030.0,090.0,030.0,451.000,454.718,7.1859,7.1873,34.2899,34.2886,34.2881,34.2882,0.48117,0.55,0.59,0.0247,,,1.5536,35.11,37.194,26.8396,26.8381,0.3941,90.6188,4.2832e+00,9.9990e+03,,,,,,,
CalCOFI,0701JD,021,197,18-Jan-2007 5:52:19 PM,18-Jan-2007 9:52:19 AM,33.41816,-117.89918,090.0 030.0,090.0,030.0,450.000,453.708,7.1980,7.1990,34.2890,34.2877,34.2876,34.2877,0.48423,0.56,0.59,0.0247,,,1.5359,34.59,36.657,26.8373,26.8360,0.3951,90.5951,4.3189e+00,9.9990e+03,,,,,,,
CalCOFI,0701JD,021,197,18-Jan-2007 5:52:20 PM,18-Jan-2007 9:52:20 AM,33.41816,-117.89918,090.0 030.0,090.0,030.0,449.000,452.699,7.2117,7.2121,34.2888,34.2875,34.2877,34.2878,0.48727,0.56,0.60,0.0250,,,1.5205,34.14,36.189,26.8352,26.8342,0.3950,90.5979,4.5480e+00,9.9990e+03,,,,,,,
CalCOFI,0701JD,021,197,18-Jan-2007 5:52:22 PM,18-Jan-2007 9:52:22 AM,33.41816,-117.89918,090.0 030.0,090.0,030.0,448.000,451.690,7.2154,7.2162,34.2888,34.2875,34.2876,34.2877,0.48946,0.56,0.60,0.0249,,,1.5161,34.01,36.056,26.8346,26.8336,0.3956,90.5837,4.0107e+00,9.9990e+03,,,,,,,
CalCOFI,0701JD,021,197,18-Jan-2007 5:52:23 PM,18-Jan-2007 9:52:23 AM,33.41816,-117.89918,090.0 030.0,090.0,030.0,447.000,450.680,7.2199,7.2217,34.2887,34.2874,34.2875,34.2876,0.49152,0.57,0.60,0.0251,,,1.5241,34.25,36.299,26.8340,26.8328,0.3960,90.5749,4.3119e+00,9.9990e+03,,,,,,,
CalCOFI,0701JD,021,197,18-Jan-2007 5:52:24 PM,18-Jan-2007 9:52:24 AM,33.41816,-117.89918,090.0 030.0,090.0,030.0,446.000,449.671,7.2240,7.2244,34.2886,34.2873,34.2875,34.2876,0.49235,0.57,0.60,0.0250,,,1.5238,34.24,36.290,26.8333,26.8324,0.3953,90.5909,4.3912e+00,9.9990e+03,,,,,,,
CalCOFI,0701JD,021,197,18-Jan-2007 5:52:25 PM,18-Jan-2007 9:52:25 AM,33.41816,-117.89918,090.0 030.0,090.0,030.0,445.000,448.662,7.2271,7.2275,34.2883,34.2870,34.2873,34.2874,0.49381,0.57,0.61,0.0250,,,1.4949,33.39,35.412,26.8326,26.8317,0.3960,90.5746,4.3725e+00,9.9990e+03,,,,,,,
CalCOFI,0701JD,021,197,18-Jan-2007 5:52:26 PM,18-Jan-2007 9:52:26 AM,33.41816,-117.89918,090.0 030.0,090.0,030.0,444.000,447.652,7.2280,7.2286,34.2883,34.2870,34.2875,34.2876,0.49467,0.57,0.61,0.0245,,,1.5024,33.61,35.640,26.8325,26.8317,0.3968,90.5568,4.3449e+00,9.9990e+03,,,,,,,
CalCOFI,0701JD,021,197,18-Jan-2007 5:52:27 PM,18-Jan-2007 9:52:27 AM,33.41816,-117.89918,090.0 030.0,090.0,030.0,443.000,446.643,7.2321,7.2330,34.2887,34.2874,34.2876,34.2877,0.49715,0.57,0.61,0.0251,,,1.5116,33.88,35.919,26.8322,26.8312,0.3964,90.5662,4.7899e+00,9.9990e+03,,,,,,,
CalCOFI,0701JD,021,197,18-Jan-2007 5:52:27 PM,18-Jan-2007 9:52:27 AM,33.41816,-117.89918,090.0 030.0,090.0,030.0,442.000,445.634,7.2429,7.2440,34.2885,34.2872,34.2871,34.2872,0.49933,0.57,0.61,0.0248,,,1.5053,33.70,35.728,26.8305,26.8292,0.3964,90.5662,3.7705e+00,9.9990e+03,,,,,,,
CalCOFI,0701JD,021,197,18-Jan-2007 5:52:29 PM,18-Jan-2007 9:52:29 AM,33.41816,-117.89918,090.0 030.0,090.0,030.0,441.000,444.624,7.2484,7.2493,34.2881,34.2868,34.2868,34.2869,0.50263,0.58,0.62,0.0253,,,1.4699,32.66,34.653,26.8294,26.8282,0.3957,90.5819,3.9145e+00,9.9990e+03,,,,,,,
CalCOFI,0701JD,021,197,18-Jan-2007 5:52:30 PM,18-Jan-2007 9:52:30 AM,33.41816,-117.89918,090.0 030.0,090.0,030.0,440.000,443.615,7.2598,7.2612,34.2880,34.2867,34.2867,34.2868,0.50558,0.58,0.62,0.0247,,,1.4880,33.19,35.203,26.8277,26.8265,0.3945,90.6079,4.6135e+00,9.9990e+03,440,7.27 ,34.286,  .59,,,35.9
CalCOFI,0701JD,021,197,18-Jan-2007 5:52:31 PM,18-Jan-2007 9:52:31 AM,33.41816,-117.89918,090.0 030.0,090.0,030.0,439.000,442.606,7.2733,7.2737,34.2873,34.2860,34.2863,34.2864,0.50819,0.59,0.62,0.0247,,,1.5050,33.69,35.719,26.8253,26.8244,0.3943,90.6142,4.3220e+00,9.9990e+03,,,,,,,
CalCOFI,0701JD,021,197,18-Jan-2007 5:52:32 PM,18-Jan-2007 9:52:32 AM,33.41816,-117.89918,090.0 030.0,090.0,030.0,438.000,441.597,7.2787,7.2796,34.2866,34.2853,34.2854,34.2855,0.50966,0.59,0.63,0.0252,,,1.5074,33.76,35.792,26.8239,26.8229,0.3950,90.5967,4.3944e+00,9.9990e+03,,,,,,,
CalCOFI,0701JD,021,197,18-Jan-2007 5:53:06 PM,18-Jan-2007 9:53:06 AM,33.41816,-117.89911,090.0 030.0,090.0,030.0,437.000,440.587,7.2675,7.2619,34.2864,34.2851,34.2860,34.2861,0.51268,0.59,0.63,0.0252,,,1.5124,33.90,35.944,26.8253,26.8258,0.3952,90.5927,4.5161e+00,9.9990e+03,,,,,,,
CalCOFI,0701JD,021,197,18-Jan-2007 5:53:56 PM,18-Jan-2007 9:53:56 AM,33.41816,-117.89884,090.0 030.0,090.0,030.0,436.000,439.578,7.2795,7.2798,34.2852,34.2839,34.2846,34.2847,0.51757,0.60,0.64,0.0250,,,1.5317,34.47,36.530,26.8227,26.8222,0.3958,90.5803,4.1736e+00,9.9990e+03,,,,,,,
CalCOFI,0701JD,021,197,18-Jan-2007 5:53:58 PM,18-Jan-2007 9:53:58 AM,33.41816,-117.89884,090.0 030.0,090.0,030.0,435.000,438.569,7.2822,7.2827,34.2850,34.2837,34.2841,34.2842,0.52091,0.60,0.64,0.0250,,,1.5285,34.38,36.432,26.8222,26.8214,0.3957,90.5820,4.8601e+00,9.9990e+03,,,,,,,
CalCOFI,0701JD,021,197,18-Jan-2007 5:54:00 PM,18-Jan-2007 9:54:00 AM,33.41816,-117.89884,090.0 030.0,090.0,030.0,434.000,437.559,7.2866,7.2885,34.2845,34.2832,34.2833,34.2834,0.52815,0.61,0.65,0.0251,,,1.5152,33.99,36.029,26.8211,26.8199,0.3951,90.5952,4.7979e+00,9.9990e+03,,,,,,,